STARLINK-32149, 60292

Orbit data source: Space-Track

STARLINK-32149, 60292 is a payload satellite owned by SpaceX/Seattle (US) in LEO that was launched on Sun, 28 Jul 2024 UTC via an FALCON 9 launch vehicle from the Air Force Eastern Test Range (AFETR). Payload-class satellites include a variety of spacecraft equipped with specific instruments for various scientific and technological missions. These include communications satellites like Starlink; space stations such as the ISS; scientific satellites like the Hubble; Earth observation satellites from companies like Planet Labs, Umbra, and HawkEye 360; GPS; miniature CubeSats for education and research; and military/defense satellites.

Loading next visibility...
Identifier
60292, 2024-132Q
Orbit
LEO
Last TLE update
16 hours ago
Origin
Manufacturer
SpaceX/Seattle
Mission
Operational spacecraft
Bus & Motor
STARLINK V2M, Unknown motor
Mass
730 kg wet, ~700 kg dry
Launch date (UTC)
2024-07-28 (10 months ago)
Launch vehicle
FALCON 9
Launch site
Air Force Eastern Test Range (AFETR)
Object type
Payload
Rocket body
Debris
Shape & HBR
Unknown
Radar Cross Section
Large (>1 m²)

Expand to show TLE details & history

TLE from 16 hours ago
0 STARLINK-32149
1 60292U 24132Q   25132.88617489 -.00000342  00000-0  58005-6 0  9999
2 60292  53.1607   9.8064 0000622 112.9582 247.1484 15.30195633 45508
Epoch: 2025-05-12T21:16Z
Definitive object data (Epoch: 2025-05-12T21:16:05.51Z)
Latitude
-0.00006°
Longitude
179.89057°
Altitude
476.293 km
Speed
7.629 km/s
True Right ascension
00h 39m 13s
True Declination
0° 00' 00"
Sunlit
Object was in daylight at TLE epoch
Visualization TLE readout
Latitude
-25.52938°
Longitude
156.03907°
Altitude
483.05 km
Speed
7.624 km/s
Apparent Right ascension
02h 26m 43s
Apparent Declination
-67° 22' 23"
Sunlit
Object is in daylight
Visualization observer readout
Local Sidereal Time
21:13:48
Azimuth
153.587° SSE
Elevation
-32.147°
Doppler factor
1
Orbital elements
Apogee altitude
475.911 km
Perigee altitude
475.058 km
Semi-major axis
6,853.621 km
Eccentricity
0.0000622
Inclination
53.1607°
RAAN
9.8064°
Arg. of periapsis
112.9582°
True anomaly
247.14183°
Mean anomaly
247.1484°
Eccentric anomaly
247.14512°
Mean motion
3.82528 °/min
BSTAR
5.8005e-7
Orbital period
94.11 mins
Loading maneuver chart data...
Loading SW <> Apogee altitude chart data...
Loading historical data...
Loading historical data...
Loading historical data...
Loading historical data...
Loading historical data...
Loading historical data...
Loading historical data...

STARLINK-32149 Visibility forecast

Observer location: undefined°, undefined°

Span
Click to sort rows by Start time (UTC) header in descending order
Start Az.
Max El. time (UTC)
Max El. Az.
Max El.
End time (UTC)
End Az.
6 mins2025-05-13 17:48:09.116Z198.239° SSW2025-05-13 17:51:09.116Z135.054° SSE30.358°2025-05-13 17:54:09.116Z68.537° E
5 mins2025-05-13 19:27:09.116Z280.221° WNW2025-05-13 19:29:09.116Z330.448° NNW26.562°2025-05-13 19:32:09.116Z31.159° NE
5 mins2025-05-14 00:24:09.116Z338.928° N2025-05-14 00:26:09.116Z35.139° NE29.486°2025-05-14 00:29:09.116Z97.11° ESE
4 mins2025-05-14 02:02:09.116Z273.595° WNW2025-05-14 02:04:09.116Z220.413° SW25.883°2025-05-14 02:06:09.116Z176.234° S
|